CST,Max TemperatureF,Mean TemperatureF,Min TemperatureF,Max Dew PointF,MeanDew PointF,Min DewpointF,Max Humidity, Mean Humidity, Min Humidity, Max Sea Level PressureIn, Mean Sea Level PressureIn, Min Sea Level PressureIn, Max VisibilityMiles, Mean VisibilityMiles, Min VisibilityMiles, Max Wind SpeedMPH, Mean Wind SpeedMPH, Max Gust SpeedMPH,PrecipitationIn, CloudCover, Events, WindDirDegrees
2013-2-1,15,6,-2,13,0,-8,93,77,68,30.36,30.27,30.14,10,9,1,21,15,25,0.00,2,Snow,252
2013-2-2,23,13,3,22,10,0,96,84,70,30.12,30.06,29.99,10,8,1,20,10,25,0.00,7,Snow,299
2013-2-3,21,15,9,19,13,6,96,83,68,30.05,30.01,29.95,10,7,2,20,8,26,0.00,7,Rain-Snow,258
2013-2-4,23,14,5,21,16,3,93,87,80,29.99,29.91,29.84,10,9,2,18,9,20,0.00,5,Rain-Snow,39
2013-2-5,30,18,6,28,19,4,93,86,74,30.08,29.91,29.80,10,8,1,18,6,22,0.00,6,Rain-Snow,254
2013-2-6,37,23,9,32,24,6,92,86,77,30.21,30.13,30.05,10,9,7,17,7,,0.00,4,,144
2013-2-7,33,30,28,33,32,27,100,98,92,30.07,29.96,29.87,10,3,0,18,10,25,0.30,8,Rain-Snow,120
2013-2-8,27,23,19,26,20,17,96,89,84,30.38,30.28,30.02,10,10,7,21,13,26,0.00,7,,7
2013-2-9,31,26,21,28,25,20,97,90,84,30.38,30.24,30.04,10,9,5,21,9,25,0.00,6,,154
2013-2-10,43,34,25,42,35,23,99,93,67,30.05,29.69,29.46,10,7,2,30,17,41,0.15,7,Rain,164
2013-2-11,38,32,26,32,25,21,85,78,72,30.06,29.78,29.51,10,10,10,36,27,45,0.00,8,,267
2013-2-12,30,26,22,26,22,19,96,84,73,30.10,30.03,29.90,10,10,7,21,13,25,0.00,5,,258
2013-2-13,40,30,21,34,28,20,96,90,74,29.89,29.77,29.71,10,7,4,14,7,,0.00,2,,208
2013-2-14,38,35,31,32,29,25,93,82,63,29.99,29.79,29.63,10,10,10,25,12,33,0.00,7,,267
2013-2-15,32,24,17,27,17,10,92,70,55,30.20,30.15,29.99,10,10,3,18,12,24,0.00,4,Rain-Snow,315
2013-2-16,20,15,10,10,7,5,85,71,61,30.20,30.17,30.12,10,10,10,18,11,22,0.00,1,,326
2013-2-17,30,18,6,22,13,4,92,74,52,30.19,30.11,29.92,10,10,10,18,5,23,0.00,0,,151
2013-2-18,49,38,26,43,31,22,100,82,65,29.91,29.65,29.45,10,8,1,30,17,32,0.41,3,Rain-Snow,184
2013-2-19,19,13,7,16,8,2,86,80,73,30.22,29.95,29.68,10,7,2,34,25,43,0.00,6,Snow,286
2013-2-20,19,12,5,13,7,0,92,79,74,30.37,30.32,30.23,10,10,10,17,11,23,0.00,0,,322
2013-2-21,27,19,11,26,19,10,96,90,84,30.38,30.21,29.93,10,9,1,23,8,30,0.00,6,Snow,61
2013-2-22,32,28,23,30,25,22,96,92,86,29.93,29.85,29.79,10,7,1,22,15,29,0.08,8,Rain-Snow,181
2013-2-23,27,20,14,23,19,13,94,86,74,29.97,29.93,29.90,10,9,2,17,13,22,0.01,6,Rain-Snow,251
2013-2-24,32,18,5,25,16,4,96,86,66,30.13,30.08,29.99,10,8,3,6,2,,0.01,0,,156
2013-2-25,38,27,16,30,25,14,97,84,68,30.14,30.08,29.94,10,9,4,14,4,16,0.00,0,,83
2013-2-26,34,32,30,32,30,28,100,90,77,29.94,29.65,29.54,10,6,0,29,19,36,0.00,5,Rain-Snow,46
2013-2-27,32,30,29,31,30,28,97,93,88,29.74,29.63,29.56,10,5,1,17,14,22,0.05,8,Rain-Snow,339
2013-2-28,34,30,26,31,28,22,97,86,77,30.09,29.95,29.76,10,9,3,16,12,21,0.00,8,Rain-Snow,357